Orbital Elements at Epoch 2459000.5 (2020-May-31.0) TDB
Reference: JPL 19 (heliocentric ecliptic J2000)
Element | Value | Uncertainty (1-sigma) | Units |
e | .05136236561604111 | 4.5466e-08 | |
a | 2.965698664138879 | 3.2355e-08 | au |
q | 2.813373365044373 | 1.3283e-07 | au |
i | 9.910288012442972 | 5.4136e-06 | deg |
node | 57.16239507654838 | 2.5981e-05 | deg |
peri | 196.2372436351499 | 6.3427e-05 | deg |
M | 36.168437218588 | 5.5246e-05 | deg |
tp | 2458813.079883964772 (2019-Nov-25.57988396) | 0.00028707 | TDB |
period | 1865.472963758759 5.11 | 3.0527e-05 8.358e-08 | d yr |
n | .1929805507739081 | 3.158e-09 | deg/d |
Q | 3.118023963233385 | 3.4016e-08 | au |
|
| | Orbit Determination Parameters
Additional Information
|